Location: Kalisz
(51.7636°N, 18.0893°E)
Time: 00:25:10
(UTC+01:00)

ISS - Pass Details

Date: 24 January 2019
Orbit: 403 x 411 km, 51.6° (Epoch: 17 February)

Event Time Altitude Azimuth Distance (km) Brightness Sun altitude
Rises 19:19:20 0° 240° (WSW) 2,332 0.9 -27.2°
Reaches altitude 10° 19:21:26 10° 235° (SW) 1,475 -0.4 -27.5°
Enters shadow 19:22:03 15° 232° (SW) 1,234 -0.9 -27.6°
